User: anonymous   Login
Location: Dürabuch
(48.2640°N, 11.2185°E)
Time: 19:03:12
(UTC+00:00)
Language:

SL-08 R/B - Orbit

View from above orbital plane
View from above orbital plane
View from above satellite
View from above satellite

Ground track
Ground track

The orbit data is extracted from the following two-line orbital elements,

1 28381U 04028B   24199.57402642  .00000035  00000-0  19551-4 0  9994
2 28381  82.9558 211.6106 0030930 328.5452 147.4370 13.78471775  5373
Epoch (UTC): 17 July 2024 13:46:35
Eccentricity: 0.0030930
inclination: 82.9558°
perigee height: 946 km
apogee height: 992 km
right ascension of ascending node: 211.6106°
argument of perigee: 328.5452°
revolutions per day: 13.78471775
mean anomaly at epoch: 147.4370°
orbit number at epoch: 537

The dashed part of the orbit path shows where the satellite is in the earth's shadow,  

DLR